Regional Weather Roundup
Issued by NWS Kansas City/Pleasant Hill, MO

Home | Current Version | Previous Version | Graphics & Text | Print | Product List | Glossary Off
Versions: 1 2 3 4 5 6 7 8 9 10 11 12 13 14 15 16 17 18 19 20 21 22 23 24 25 26 27 28 29 30 31 32 33 34 35 36 37 38 39 40 41 42 43 44 45 46 47 48 49 50

000
ASUS43 KEAX 230711
RWREAX

WEATHER ROUNDUP FOR EASTERN KANSAS AND NORTHWEST MISSOURI
NATIONAL WEATHER SERVICE KANSAS CITY/PLEASANT HILL MO
200 AM CDT TUE SEP 23 2014

KSZ040-057-103>105-MOZ028-029-037-043-230800-
...KANSAS CITY METROPOLITAN AREA...

CITY           SKY/WX    TMP DP  RH WIND       PRES   REMARKS
K.C. INTL      PTCLDY    55  51  86 S8        30.23R
K.C. DOWNTOWN  PTCLDY    59  54  83 NW3       30.22R
LEES SUMMIT    PTCLDY    59  51  75 SE5       30.24R
OLATHE - IXD   PTCLDY    53  50  89 SE3       30.23S
OLATHE - OJC   PTCLDY    55  52  89 CALM      30.23R
LAWRENCE       CLEAR     50  48  93 CALM      30.23R

$$

MOZ001>008-011>017-020>025-030>033-038>040-044>046-053-054-230800-
...NORTHERN AND CENTRAL MISSOURI...

CITY           SKY/WX    TMP DP  RH WIND       PRES   REMARKS
ST. JOSEPH     MOCLDY    53  51  93 CALM      30.22S
MOSBY          PTSUNNY   52  52 100 CALM      30.23S
WHITEMAN AFB   CLEAR     52  48  87 CALM      30.24R
CLINTON        FOG       50  50 100 CALM      30.24S VSB 1
SEDALIA        PTCLDY    55  49  80 S3        30.25R
WARSAW         NOT AVBL
MARSHALL       PTCLDY    55  54  94 E3        30.25S
CHILLICOTHE      N/A     54  52  93 CALM      30.25R
MOBERLY        PTCLDY    52  45  76 SE5       30.27R
KIRKSVILLE     PTCLDY    50  32  50 SE3       30.26R

$$

MOZ041-047>049-056>058-063>065-088>090-097-230800-
...EASTERN AND SOUTHERN MISSOURI...

CITY           SKY/WX    TMP DP  RH WIND       PRES   REMARKS
ST. LOUIS INTL PTCLDY    56  49  77 CALM      30.27R
SPIRIT OF STL  CLEAR     48  48 100 CALM      30.26R FOG
COLUMBIA       PTCLDY    53  48  83 SE5       30.26R
JEFFERSON CITY CLEAR     49  47  93 CALM      30.26R
MEXICO         PTCLDY   N/A N/A N/A CALM      30.27R
HANNIBAL       PTCLDY    57  43  58 SE3       30.27S
ROLLA          PTCLDY    53  45  74 SE8       30.25S
LEBANON        CLEAR     54  48  82 E3        30.26S
OSAGE BEACH    CLEAR     50  46  87 SE3       30.25S
SPRINGFIELD    CLEAR     56  48  74 SE6       30.24R
BRANSON        CLEAR     50  48  93 CALM      30.25S
NEVADA         PTCLDY    52  50  93 E3        30.24S
JOPLIN         CLEAR     57  50  77 E3        30.23R
WEST PLAINS    PTCLDY    49  46  90 CALM      30.27R

$$

IAZ060-094-KSZ022-034>040-054-083-096-NEZ052-066-093-230800-
...KANSAS...SOUTHEAST NEBRASKA AND IOWA...

CITY           SKY/WX    TMP DP  RH WIND       PRES   REMARKS
TOPEKA         PTCLDY    57  53  86 E3        30.21S
MANHATTAN      MOCLDY    60  52  74 SW3       30.18S
EMPORIA        PTCLDY    56  52  86 S7        30.21S
CHANUTE        CLEAR     56  53  90 E6        30.22R
WICHITA        MOCLDY    63  50  62 SE12      30.18S
OMAHA          CLOUDY    63  50  62 S10       30.19R
LINCOLN        CLOUDY    60  51  72 S8        30.17F
FALLS CITY     CLOUDY    55  52  89 SE3       30.20S
LAMONI         MOCLDY    55  50  83 S7        30.23S
DES MOINES     PTCLDY    56  50  80 S6        30.23R

$$




USA.gov is the U.S. government's official web portal to all federal, state and local government web resources and services.